Overview Statistics Trail Chart Weather Telemetry Raw packets
 

This is the latest recevied weather packets stored in our database for station/object WD7OO. If no packets are shown the sender has not sent any weather packets the latest 10 day(s).

<< 90 91 92 93 94 95 96 >>
Time Temp. Humidity Pressure Rain* Wind** Luminosity Snow
1787959552 21.67° C 82% 1020.5 hPa 0 mm - 33 W/m² -
1787959247 21.67° C 82% 1020.7 hPa 0 mm - 36 W/m² -
1787958946 21.67° C 82% 1020.6 hPa 0 mm - 35 W/m² -
1787958642 22.22° C 82% 1020.7 hPa 0 mm - 37 W/m² -
1787958338 22.22° C 81% 1020.8 hPa 0 mm - 40 W/m² -
1787958033 22.22° C 81% 1021 hPa 0 mm - 42 W/m² -
1787957732 22.78° C 80% 1020.7 hPa 0 mm - 43 W/m² -
1787957427 22.78° C 78% 1020.6 hPa 0 mm - 44 W/m² -
1787957121 23.33° C 78% 1021 hPa 0 mm - 48 W/m² -
1787956821 23.89° C 74% 1020.9 hPa 0 mm - 55 W/m² -
1787956516 24.44° C 76% 1020.8 hPa 0 mm - 57 W/m² -
1787956211 25° C 75% 1021.1 hPa 0 mm - 52 W/m² -
1787955911 25.56° C 70% 1020.9 hPa 0 mm - 62 W/m² -
1787955607 25.56° C 71% 1020.9 hPa 0 mm - 192 W/m² -
1787955303 23.89° C 73% 1020.7 hPa 0 mm - 226 W/m² -
1787955001 23.33° C 74% 1020.9 hPa 0 mm - 246 W/m² -
1787954697 23.33° C 75% 1021 hPa 0 mm - 81 W/m² -
1787954391 23.89° C 74% 1021.1 hPa 0 mm - 81 W/m² -
1787954086 23.89° C 72% 1021 hPa 0 mm - 68 W/m² -
1787953785 23.89° C 73% 1021 hPa 0 mm - 69 W/m² -
1787953481 24.44° C 68% 1021.2 hPa 0 mm - 87 W/m² -
1787953179 24.44° C 70% 1021 hPa 0 mm - 94 W/m² -
1787952877 25° C 72% 1021.1 hPa 0 mm - 106 W/m² -
1787952572 24.44° C 69% 1021.1 hPa 0 mm - 148 W/m² -
1787952271 24.44° C 67% 1021.2 hPa 0 mm - 218 W/m² -

* Rain latest hour (hover to see other rain measurements)
** Current wind speed in m/s (hover to see current wind gust speed)